Location: Four Corners
(38.2757°N, 122.4608°W)
Time: 20:03:49
(UTC+00:00)

USA 234 - Pass Details

Date: 08 December 2019
Orbit: 1099 x 1108 km, 123.0° (Epoch: 16 January)

Event Time Altitude Azimuth Distance (km) Brightness Sun altitude
Rises 11:40:33 0° 45° (NE) 3,923 6.7 -41.1°
Reaches altitude 10° 11:43:01 10° 45° (NE) 2,964 5.9 -40.6°
Enters shadow 11:46:26 34° 46° (NE) 1,734 4.5 -39.9°
